Orbital Elements at Epoch 2459000.5 (2020-May-31.0) TDB
Reference: JPL 8 (heliocentric ecliptic J2000)
Element | Value | Uncertainty (1-sigma) | Units |
e | .2180270743550156 | 1.4165e-07 | |
a | 2.765200860257103 | 2.626e-08 | au |
q | 2.162312206691274 | 3.8555e-07 | au |
i | 4.033437776371872 | 1.1868e-05 | deg |
node | 144.8475791535232 | 0.00022297 | deg |
peri | 198.9736079037617 | 0.0002252 | deg |
M | 309.2080423073901 | 3.6181e-05 | deg |
tp | 2459237.463198571692 (2021-Jan-22.96319857) | 0.00017096 | TDB |
period | 1679.532653615774 4.60 | 2.3925e-05 6.55e-08 | d yr |
n | .2143453413811132 | 3.0533e-09 | deg/d |
Q | 3.368089513822931 | 3.1985e-08 | au |
|
| | Orbit Determination Parameters
Additional Information
|